Content
SEND FEEDBACK

Daily
Averages
Monthly
Summary
United States of America

YORK, NEBRASKA


Home > North America > United States > Nebraska
Elevation: 506 meters     Latitude: 40 53N     Longitude: 097 35W

WEATHER
 
SELECT A DAY
Number of Records: 311,312;   Date Range: 1/14/02 - 8/30/14
 
SHARE

PRINT THIS DATA

[ ← Previous Day ]
WEATHER ALMANAC - 13 FEBRUARY, 2013
[ Next Day → ]
[ °F ]   °C
Weather ElementAverageHighLow
Temperature2.6 °C12 °C (4:15 pm)-3 °C (12:35 am)
Dewpoint-2.9 °C-1 °C (12:35 pm)-5 °C (1:55 am)
Humidity70.5 %93 % (12:35 am)38 % (4:15 pm)
Barometer1010.2 hPa1012.9 hPa (12:35 am)1007.5 hPa (3:35 pm)
Wind Speed11.3 km/h27.8 km/h (1:35 pm)
Wind Gust42.6 km/h (3:15 pm)
Weather ElementAverage
Visibility16.1 km
Wind DirectionS (183.1 °)

Weather ElementTotal
Precipitation---
Heating Degree Days13.8 (Base 18.3)
Averaged from 71 records on 13 February, 2013
WEATHER CONDITIONS BREAKOUT
WIND DIRECTION BREAKOUT
WEATHER BY HOUR - 13 FEBRUARY, 2013
[ °F ]   °C
Local TimeTemperatureDewpointHumidityBarometerVisibilityWind DirectionWind SpeedGust SpeedPrecipitationEventsConditions
12:35 AM-3 °C-4 °C93 %1012.9 hPa16.1 kmCalmClear
12:55 AM-2 °C-4 °C86 %1012.9 hPa16.1 kmCalmClear
1:15 AM-3 °C-4 °C93 %1012.9 hPa16.1 kmCalmClear
1:35 AM-3 °C-4 °C93 %1012.5 hPa16.1 kmCalmClear
1:55 AM-3 °C-5 °C86 %1012.5 hPa16.1 kmCalmClear
2:15 AM-3 °C-5 °C86 %1012.5 hPa16.1 kmCalmClear
2:35 AM-3 °C-5 °C86 %1012.5 hPa16.1 kmCalmClear
2:55 AM-3 °C-5 °C86 %1012.5 hPa16.1 kmCalmClear
3:15 AM-3 °C-5 °C86 %1012.2 hPa16.1 kmCalmClear
3:35 AM-3 °C-5 °C86 %1012.2 hPa16.1 kmCalmClear
3:55 AM-3 °C-5 °C86 %1011.9 hPa16.1 kmWest (260°)13 km/hClear
4:15 AM-3 °C-5 °C86 %1011.5 hPa16.1 kmWest (270°)9.3 km/hScattered Clouds
4:35 AM-3 °C-5 °C86 %1011.2 hPa16.1 kmCalmScattered Clouds
4:55 AM-3 °C-5 °C86 %1011.2 hPa16.1 kmCalmClear
5:15 AM-3 °C-5 °C86 %1011.2 hPa16.1 kmCalmMostly Cloudy
5:35 AM-3 °C-4 °C93 %1011.2 hPa16.1 kmCalmMostly Cloudy
5:55 AM-3 °C-4 °C93 %1011.5 hPa16.1 kmWest (270°)14.8 km/hMostly Cloudy
6:15 AM-3 °C-5 °C86 %1011.5 hPa16.1 kmWest (270°)11.1 km/hMostly Cloudy
6:35 AM-3 °C-5 °C86 %1011.2 hPa16.1 kmWest (270°)13 km/hMostly Cloudy
6:55 AM-3 °C-4 °C93 %1011.5 hPa16.1 kmWest (270°)16.7 km/hMostly Cloudy
7:15 AM-2 °C-4 °C86 %1011.2 hPa16.1 kmCalmPartly Cloudy
7:35 AM-2 °C-4 °C86 %1011.2 hPa16.1 kmWest (260°)13 km/hClear
7:55 AM-3 °C-4 °C93 %1011.2 hPa16.1 kmWest (260°)9.3 km/hClear
8:15 AM-3 °C-4 °C93 %1011.2 hPa16.1 kmCalmClear
8:35 AM-2 °C-4 °C86 %1011.5 hPa16.1 kmWest (280°)5.6 km/hClear
8:55 AM0 °C-3 °C80 %1011.5 hPa16.1 kmWNW (290°)14.8 km/hClear
9:15 AM0 °C-3 °C80 %1011.5 hPa16.1 kmWNW (290°)16.7 km/hClear
9:35 AM1 °C-3 °C75 %1010.8 hPa16.1 kmCalmClear
9:55 AM2 °C-2 °C75 %1010.8 hPa16.1 kmCalmClear
10:15 AM3 °C-2 °C70 %1010.8 hPa16.1 kmWNW (290°)16.7 km/hClear
10:35 AM4 °C-2 °C65 %1010.8 hPa16.1 kmWNW (290°)7.4 km/hClear
10:55 AM4 °C-2 °C65 %1010.8 hPa16.1 kmWest (280°)13 km/hClear
11:15 AM5 °C-2 °C61 %1010.8 hPa16.1 kmWest (280°)11.1 km/hClear
11:35 AM6 °C-2 °C57 %1010.5 hPa16.1 kmWest (270°)5.6 km/hClear
11:55 AM7 °C-2 °C53 %1010.2 hPa16.1 kmWSW (250°)14.8 km/hClear
12:15 PM7 °C-2 °C53 %1009.8 hPa16.1 kmWest (260°)14.8 km/hClear
12:35 PM8 °C-1 °C53 %1009.8 hPa16.1 kmWSW (250°)14.8 km/hClear
12:55 PM9 °C-1 °C50 %1009.5 hPa16.1 kmWSW (250°)16.7 km/h25.9 km/hClear
1:15 PM9 °C-2 °C46 %1009.1 hPa16.1 kmWSW (250°)24.1 km/hClear
1:35 PM9 °C-2 °C46 %1009.1 hPa16.1 kmWest (260°)27.8 km/hClear
1:55 PM10 °C-3 °C40 %1008.8 hPa16.1 kmWest (260°)27.8 km/hClear
2:15 PM10 °C-3 °C40 %1008.5 hPa16.1 kmWSW (250°)24.1 km/h31.5 km/hClear
2:35 PM10 °C-3 °C40 %1008.1 hPa16.1 kmWest (270°)25.9 km/h31.5 km/hClear
2:55 PM10 °C-3 °C40 %1007.8 hPa16.1 kmWest (270°)20.4 km/hClear
3:15 PM11 °C-2 °C41 %1007.8 hPa16.1 kmWest (280°)25.9 km/h42.6 km/hClear
3:35 PM10 °C-3 °C40 %1007.5 hPa16.1 kmWest (270°)25.9 km/hClear
3:55 PM11 °C-2 °C41 %1007.5 hPa16.1 kmWest (280°)22.2 km/hClear
4:15 PM12 °C-2 °C38 %1007.5 hPa16.1 kmWNW (290°)18.5 km/hClear
4:35 PM11 °C-2 °C41 %1007.5 hPa16.1 kmWest (280°)25.9 km/h35.2 km/hClear
4:55 PM10 °C-2 °C43 %1007.5 hPa16.1 kmWNW (290°)20.4 km/hScattered Clouds
5:15 PM9 °C-1 °C50 %1007.8 hPa16.1 kmWNW (300°)16.7 km/hOvercast
5:35 PM9 °C-1 °C50 %1007.8 hPa16.1 kmNW (310°)16.7 km/hOvercast
5:55 PM8 °C-2 °C50 %1008.1 hPa16.1 kmNW (310°)18.5 km/hOvercast
6:15 PM6 °C-1 °C61 %1008.1 hPa16.1 kmWNW (290°)14.8 km/hScattered Clouds
6:35 PM5 °C-2 °C61 %1008.5 hPa16.1 kmCalmClear
6:55 PM3 °C-2 °C70 %1008.5 hPa16.1 kmCalmClear
7:15 PM2 °C-2 °C75 %1008.5 hPa16.1 kmCalmClear
7:35 PM3 °C-2 °C70 %1008.8 hPa16.1 kmWest (280°)16.7 km/hClear
7:55 PM2 °C-2 °C75 %1008.8 hPa16.1 kmCalmClear
8:15 PM2 °C-2 °C75 %1008.8 hPa16.1 kmWest (280°)14.8 km/hClear
8:35 PM2 °C-2 °C75 %1008.8 hPa16.1 kmWest (270°)5.6 km/hClear
8:55 PM1 °C-2 °C81 %1008.8 hPa16.1 kmCalmClear
9:15 PM2 °C-2 °C75 %1008.8 hPa16.1 kmCalmClear
9:35 PM2 °C-2 °C75 %1008.8 hPa16.1 kmWest (260°)16.7 km/hClear
9:55 PM2 °C-2 °C75 %1008.8 hPa16.1 kmWest (260°)16.7 km/hClear
10:15 PM2 °C-2 °C75 %1009.1 hPa16.1 kmWest (280°)22.2 km/hClear
10:35 PM2 °C-2 °C75 %1009.5 hPa16.1 kmWNW (290°)20.4 km/hScattered Clouds
10:55 PM3 °C-2 °C70 %1009.8 hPa16.1 kmWNW (300°)18.5 km/hOvercast
11:15 PM2 °C-2 °C75 %1010.2 hPa16.1 kmWNW (300°)18.5 km/hMostly Cloudy
11:35 PM3 °C-1 °C75 %1010.2 hPa16.1 kmNW (310°)22.2 km/hOvercast
11:55 PM3 °C-1 °C75 %1010.5 hPa16.1 kmWNW (300°)20.4 km/hOvercast
Hourly data recorded from KJYR, located 0 kilometers away from York, Nebraska







STORIES FROM OUR PARTNERS